Regional Weather Roundup
Issued by NWS

Home | Current Version | Previous Version | Graphics & Text | Print | Product List | Glossary On
Versions: 1 2 3 4 5 6 7 8 9 10 11 12 13 14 15 16 17 18 19 20 21 22 23 24 25 26 27
000
ASUS45 KSLC 242110
RWRUT

UTAH REGIONAL WEATHER ROUNDUP
NATIONAL WEATHER SERVICE SALT LAKE CITY UT
300 PM MDT WED AUG 24 2016

UTZ001>011-023>025-242200-

NORTHERN UTAH

CITY           SKY/WX    TMP DP  RH WIND       PRES   REMARKS
BRIGHAM CITY     N/A     78  13   8 NW3       30.14S
HILL AFB       MOSUNNY   74  26  16 W13       30.16F
LOGAN          SUNNY     78  25  14 VRB5      30.12F
OGDEN          SUNNY     76  27  16 SW9       30.14F
PROVO AIRPORT  MOSUNNY   81  36  19 NW10      30.12F
SALT LAKE CITY MOSUNNY   82  16   8 NW16G33   30.13S
VERNAL         MOSUNNY   81  37  20 N18G25    30.08F
WENDOVER       SUNNY     81  25  12 SE13      30.13F
HEBER CITY     SUNNY     81  27  13 SW7G16    30.15S
WEST JORDAN    SUNNY     78  29  16 N16G23    30.15F

$$

UTZ012>022-026-027-242200-

SOUTHERN/CENTRAL UTAH

CITY           SKY/WX    TMP DP  RH WIND       PRES   REMARKS
BLANDING       MOSUNNY   77  49  36 SW6       30.27F
BRYCE CANYON   CLOUDY    62  48  60 S8        30.33S
CEDAR CITY     PTSUNNY   85  31  14 W14G23    30.16F
DELTA          SUNNY     82  21  10 N5        30.13F
MILFORD        MOSUNNY   83  39  21 N9        30.11F
MOAB/CYNLANDS  MOSUNNY   84  49  29 NW6       30.06F
PRICE          SUNNY     80  40  23 S8        30.14F
ST GEORGE      CLEAR     91  48  22 SW10G18   30.01F

$$

REGIONAL REPORTS     COLORADO/ARIZONA

CITY           SKY/WX    TMP DP  RH WIND       PRES   REMARKS
CRAIG, CO      CLOUDY    82  27  13 NW16G25   30.14F
GRAND JUNCTION CLOUDY    83  47  28 VRB6      30.09F
RIFLE          LGT RAIN  73  41  31 VRB6G30   30.13F
MONTROSE       CLOUDY    72  46  39 W7        30.20R
CORTEZ         SUNNY     75  51  43 W6        30.20F
PAGE, AZ       MOSUNNY   89  45  21 E6        30.07F
GRAND CANYON   MOSUNNY   79  39  23 W12       30.28F
KINGMAN        SUNNY     92  46  20 SW12G21   30.08F
FLAGSTAFF      PTSUNNY   75  41  29 E8        30.30F

$$

REGIONAL REPORTS    NEVADA/IDAHO/WYOMING

CITY           SKY/WX    TMP DP  RH WIND       PRES   REMARKS
LAS VEGAS, NV  MOSUNNY   99  41  13 N6        29.92F HX  94
ELY            SUNNY     81  17   9 NW13      30.21F
ELKO           SUNNY     82   8   6 VRB5G20   30.17F
POCATELLO, ID  SUNNY     71  26  18 W9        30.16F
EVANSTON, WY   SUNNY     72   3   6 W23G35    30.25R
ROCK SPRINGS   SUNNY     75  15  10 W16G23    30.18F

$$




USA.gov is the U.S. government's official web portal to all federal, state and local government web resources and services.